Location: Hazelmere
(55.0390°N, 119.7293°W)
Time: 01:29:00
(UTC+00:00)

BlueWalker 3 - Visible Passes

Search period start: 29 May 2023 00:00
Search period end: 08 June 2023 00:00
Orbit: 495 x 512 km, 53.2° (Epoch: 28 May)

Date Brightness Start Highest point End Pass type
(mag) Time Alt. Az. Time Alt. Az. Time Alt. Az.
29 May 2.8 05:40:42 10° SSW 05:44:02 28° SSE 05:47:24 10° E visible
29 May 1.9 07:18:21 10° WSW 07:22:11 61° S 07:26:02 10° E visible
29 May 1.9 08:56:44 10° W 09:00:34 61° S 09:04:25 10° ESE visible
29 May 2.8 10:35:20 10° W 10:38:42 28° SSW 10:42:04 10° SSE visible
30 May 2.8 05:20:20 10° SSW 05:23:41 29° SSE 05:27:04 10° E visible
30 May 1.9 06:58:01 10° WSW 07:01:51 62° S 07:05:41 10° E visible
30 May 1.9 08:36:23 10° W 08:40:13 60° SSW 08:44:05 10° ESE visible
30 May 2.9 10:15:01 10° W 10:18:22 28° SSW 10:21:42 10° SSE visible
31 May 1.9 06:37:40 10° WSW 06:41:30 62° S 06:45:21 10° E visible
31 May 1.9 08:16:03 10° W 08:19:53 60° S 08:23:44 10° ESE visible
31 May 2.9 09:54:41 10° W 09:58:00 27° SSW 10:01:20 10° SSE visible
01 Jun 1.9 06:17:19 10° WSW 06:21:09 63° S 06:24:59 10° E visible
01 Jun 1.9 07:55:42 10° W 07:59:31 60° SSW 08:03:22 10° ESE visible
01 Jun 2.9 09:34:20 10° W 09:37:39 27° SSW 09:40:57 10° SSE visible
02 Jun 1.9 05:56:58 10° WSW 06:00:47 63° S 06:04:38 10° E visible
02 Jun 1.9 07:35:21 10° W 07:39:10 59° SSW 07:43:00 10° ESE visible
02 Jun 2.9 09:14:00 10° W 09:17:16 26° SSW 09:20:34 10° SSE visible
03 Jun 1.9 05:36:36 10° WSW 05:40:25 63° S 05:44:16 10° E visible
03 Jun 1.9 07:15:00 10° W 07:18:48 59° SSW 07:22:38 10° ESE visible
03 Jun 3.0 08:53:39 10° W 08:56:54 26° SSW 08:59:40 13° SSE visible
04 Jun 1.9 05:16:14 10° WSW 05:20:03 64° S 05:23:54 10° E visible
04 Jun 2.0 06:54:37 10° W 06:58:26 58° SSW 07:02:15 10° ESE visible
04 Jun 3.0 08:33:17 10° W 08:36:31 25° SSW 08:38:17 18° S visible
05 Jun 2.0 06:34:15 10° W 06:38:04 58° SSW 06:41:53 10° ESE visible
05 Jun 3.1 08:12:56 10° W 08:16:08 25° SSW 08:17:32 20° S visible
06 Jun 2.0 06:13:52 10° W 06:17:40 57° SSW 06:21:29 10° ESE visible
06 Jun 3.1 07:52:33 10° W 07:55:45 24° SSW 07:57:04 20° S visible
07 Jun 2.1 05:53:29 10° W 05:57:16 57° SSW 06:01:05 10° ESE visible
07 Jun 3.2 07:32:11 10° W 07:35:20 24° SSW 07:36:45 19° S visible
